Location: Newark
(20.1200°S, 168.9600°E)
Time: 21:09:34
(UTC+00:00)

Hubble Space Telescope - Pass Details

Date: 29 November 2019
Orbit: 536 x 540 km, 28.5° (Epoch: 11 December)

Event Time Altitude Azimuth Distance (km) Brightness Sun altitude
Exits shadow 17:03:12 - 242° (WSW) 2,467 3.8 -11.9°
Reaches altitude 10° 17:05:04 10° 233° (SW) 1,802 3.2 -11.5°
Maximum altitude 17:08:44 29° 171° (S) 1,005 2.6 -10.7°
Drops below altitude 10° 17:12:24 10° 110° (ESE) 1,798 5.0 -10.0°
Sets 17:14:53 0° 98° (E) 2,688 5.9 -9.4°
